COSMOS 1933

Last updated on Sun Apr 12 2026 00:02:16 GMT+0000 (Coordinated Universal Time)

1 18958U 88020A 26101.41647846 .00003591 00000+0 17355-3 0 9990 2 18958 82.5139 218.5257 0005531 88.9522 271.2346 15.18311683 55191
UTC large
Height (km)
Speed (km/s)
/
Latitude / Longitude
Inclination (degrees)
Orbital Period (minutes)
Azimuth
Elevation
Range (km)
Doppler Factor

Next 0 passes for location: London (51.5072 / 0.1276)

Sorry there are no passes over London.
COSMOS 1933